Location: St. Louis
(38.6270°N, 90.1994°W)
Time: 22:06:11
(UTC-05:00)

deb Kosmos-468 - Pass Details

Date: 17 August 2022
Orbit: 584 x 585 km, 74.0° (Epoch: 30 September)

Event Time Altitude Azimuth Distance (km) Brightness Sun altitude
Rises 23:49:19 0° 354° (N) 2,816 ? -35.3°
Reaches altitude 10° 23:51:52 10° 8° (N) 1,912 ? -35.5°
Enters shadow 23:52:21 12° 12° (NNE) 1,760 ? -35.6°
